User: anonymous   Login
Location: Unspecified
(0.0000°N, 0.0000°E)
Time: 21:57:17
(UTC+00:00)
Language:

USA 271 - Orbit

View from above orbital plane
View from above orbital plane
View from above satellite
View from above satellite

Ground track
Ground track

The orbit data is extracted from the following two-line orbital elements,

1 41745U 16052B   20005.69456395 -.00000302  00000-0  00000+0 0  9994
2 41745   0.1594  98.1133 0000581 293.5458  97.7712  1.00224983  4339
Epoch (UTC): 05 January 2020 16:40:10
Eccentricity: 0.0000581
inclination: 0.1594°
perigee height: 35797 km
apogee height: 35802 km
right ascension of ascending node: 98.1133°
argument of perigee: 293.5458°
revolutions per day: 1.00224983
mean anomaly at epoch: 97.7712°
orbit number at epoch: 433

The dashed part of the orbit path shows where the satellite is in the earth's shadow,  

DLR